ソーホー彗星

322P/SOHO (2011)

English version
Home page
Updated on June 14, 2015

---------------------------------------------------------------------

・ プロフィール

符号 322P/2011 R4

・ 軌道要素

Epoch 2011 Aug. 27.0 TT = JDT 2455800.5
T 2011 Sept. 7.12120 TT                                 MPCW
q   0.0531692            (2000.0)            P               Q
n   0.24718797     Peri.   48.70248     +0.66145473     -0.74998496
a   2.5144972      Node   359.88377     +0.60578508     +0.53462598
e   0.9788550      Incl.   12.66358     +0.44215618     +0.38948378
P   3.99
From 244 observations 1999 Sept. 4-2015 May 22.

・ 星図

・ 光度変化

        m1 = 19.0 + 5 logΔ + 10.5 log r(t - 0.17)

---------------------------------------------------------------------

軌道要素はM.P.E.C. 2015-K84に掲載されたものです。
星図はステラナビゲータ Ver.8 (アストロアーツ) で作成したものです。
光度グラフはComet for Windowsで作成したものです。

---------------------------------------------------------------------

Copyright(C) Seiichi Yoshida (comet@aerith.net). All rights reserved.